VCTRY47 KNTU-KNTU

Flight info

Callsign VCTRY47
Flight time 2h 15m
Altitude 17000
Route CANOB KW36A HOBOH ZIBUT KW45A IMELL KW36A ZINEP ROWZO HUGEE HENIP WENID
Aircraft F18/H-A/C

Departure

Time 2026-04-30 06:53
Airport Oceana Naval Air Station (KNTU)

Arrival

Time 2026-04-30 09:08
Airport Oceana Naval Air Station (KNTU)
Time Latitude Longitude Altitude Speed Heading
2026-04-30 06:40 36.81422 -76.03488 30 ft 0 kts 45°
2026-04-30 06:48 36.81427 -76.03481 30 ft 6 kts 45°
2026-04-30 06:49 36.81460 -76.03482 30 ft 10 kts 329°
2026-04-30 06:49 36.81511 -76.03547 30 ft 12 kts 314°
2026-04-30 06:49 36.81570 -76.03624 30 ft 14 kts 314°
2026-04-30 06:49 36.81625 -76.03601 30 ft 13 kts 43°
2026-04-30 06:50 36.81725 -76.03489 30 ft 25 kts 42°
2026-04-30 06:50 36.81882 -76.03311 30 ft 33 kts 41°
2026-04-30 06:50 36.82076 -76.03094 30 ft 37 kts 42°
2026-04-30 06:50 36.82269 -76.02879 30 ft 32 kts 42°
2026-04-30 06:51 36.82441 -76.02684 30 ft 32 kts 42°
2026-04-30 06:51 36.82612 -76.02499 30 ft 34 kts 42°
2026-04-30 06:51 36.82784 -76.02301 30 ft 31 kts 42°
2026-04-30 06:51 36.82867 -76.02275 30 ft 8 kts 311°
2026-04-30 06:52 36.82870 -76.02279 30 ft 0 kts 310°
2026-04-30 06:52 36.82875 -76.02286 30 ft 8 kts 310°
2026-04-30 06:52 36.82895 -76.02351 30 ft 10 kts 224°
2026-04-30 06:53 36.82888 -76.02359 30 ft 12 kts 222°
2026-04-30 06:53 36.82500 -76.02793 31 ft 159 kts 221°
2026-04-30 06:53 36.81458 -76.03972 679 ft 241 kts 225°
2026-04-30 06:53 36.80578 -76.05910 1256 ft 262 kts 255°
2026-04-30 06:54 36.80626 -76.08183 1875 ft 269 kts 285°
2026-04-30 06:54 36.81628 -76.10179 2489 ft 280 kts 315°
2026-04-30 06:54 36.83355 -76.11360 3104 ft 291 kts 344°
2026-04-30 06:54 36.85372 -76.11376 3747 ft 296 kts 13°
2026-04-30 06:55 36.87184 -76.10200 4388 ft 297 kts 42°
2026-04-30 06:55 36.88352 -76.08097 5025 ft 299 kts 71°
2026-04-30 06:55 36.88687 -76.05545 5697 ft 303 kts 88°
2026-04-30 06:55 36.88839 -76.02902 6401 ft 308 kts 87°
2026-04-30 06:56 36.88996 -76.00221 7106 ft 311 kts 87°
2026-04-30 06:56 36.89160 -75.97510 7809 ft 314 kts 86°
2026-04-30 06:56 36.89351 -75.94783 8517 ft 318 kts 86°
2026-04-30 06:56 36.89527 -75.92007 9235 ft 322 kts 87°
2026-04-30 06:57 36.89690 -75.89197 9964 ft 327 kts 87°
2026-04-30 06:57 36.89842 -75.86344 10702 ft 331 kts 86°
2026-04-30 06:57 36.89985 -75.83454 11449 ft 335 kts 87°
2026-04-30 06:57 36.90118 -75.80535 12200 ft 339 kts 87°
2026-04-30 06:58 36.90246 -75.77565 12925 ft 348 kts 87°
2026-04-30 06:58 36.90372 -75.74549 12755 ft 345 kts 87°
2026-04-30 06:58 36.90498 -75.71552 12798 ft 346 kts 87°
2026-04-30 06:58 36.90624 -75.68551 12835 ft 346 kts 87°
2026-04-30 06:59 36.90750 -75.65546 12807 ft 346 kts 87°
2026-04-30 06:59 36.90879 -75.62550 12803 ft 345 kts 87°
2026-04-30 06:59 36.91008 -75.59557 12814 ft 345 kts 87°
2026-04-30 06:59 36.91137 -75.56555 12811 ft 345 kts 87°
2026-04-30 07:00 36.91266 -75.53558 12808 ft 345 kts 87°
2026-04-30 07:00 36.91395 -75.50562 12810 ft 345 kts 87°
2026-04-30 07:00 36.91523 -75.47564 12810 ft 347 kts 87°
2026-04-30 07:00 36.91904 -75.44619 12795 ft 344 kts 67°
2026-04-30 07:01 36.93223 -75.42095 12831 ft 381 kts 41°
2026-04-30 07:01 36.95539 -75.40114 12807 ft 402 kts 20°
2026-04-30 07:01 36.98164 -75.39036 12817 ft 397 kts 13°
2026-04-30 07:01 37.00804 -75.38047 12798 ft 397 kts 13°
2026-04-30 07:02 37.03439 -75.37018 12813 ft 397 kts 14°
2026-04-30 07:02 37.06064 -75.35940 12809 ft 397 kts 15°
2026-04-30 07:02 37.08647 -75.34817 12810 ft 398 kts 16°
2026-04-30 07:02 37.11247 -75.33612 12811 ft 399 kts 18°
2026-04-30 07:03 37.13826 -75.32321 12809 ft 400 kts 19°
2026-04-30 07:03 37.16374 -75.30922 12810 ft 401 kts 21°
2026-04-30 07:03 37.18881 -75.29380 12810 ft 402 kts 24°
2026-04-30 07:03 37.21322 -75.27645 12810 ft 404 kts 28°
2026-04-30 07:04 37.23649 -75.25654 12809 ft 406 kts 34°
2026-04-30 07:04 37.25776 -75.23311 12809 ft 409 kts 44°
2026-04-30 07:04 37.27550 -75.20512 12809 ft 412 kts 57°
2026-04-30 07:04 37.28758 -75.17248 12812 ft 413 kts 72°
2026-04-30 07:05 37.29353 -75.10107 12810 ft 413 kts 94°
2026-04-30 07:05 37.29116 -75.06516 12808 ft 413 kts 97°
2026-04-30 07:05 37.28745 -75.02946 12808 ft 413 kts 99°
2026-04-30 07:06 37.28315 -74.99389 12812 ft 412 kts 100°
2026-04-30 07:06 37.27858 -74.95831 12811 ft 412 kts 100°
2026-04-30 07:06 37.27389 -74.92281 12808 ft 411 kts 101°
2026-04-30 07:06 37.26917 -74.88744 12811 ft 411 kts 101°
2026-04-30 07:07 37.26443 -74.85206 12810 ft 411 kts 101°
2026-04-30 07:07 37.25967 -74.81667 12810 ft 411 kts 101°
2026-04-30 07:07 37.25491 -74.78129 12810 ft 411 kts 101°
2026-04-30 07:07 37.25015 -74.74593 12810 ft 411 kts 101°
2026-04-30 07:08 37.24538 -74.71056 12810 ft 411 kts 101°
2026-04-30 07:08 37.24062 -74.67522 12810 ft 411 kts 101°
2026-04-30 07:08 37.23586 -74.63986 12810 ft 410 kts 101°
2026-04-30 07:08 37.23111 -74.60464 12810 ft 410 kts 101°
2026-04-30 07:09 37.22636 -74.56936 12810 ft 410 kts 101°
2026-04-30 07:09 37.22161 -74.53409 12810 ft 410 kts 101°
2026-04-30 07:09 37.21685 -74.49884 12810 ft 410 kts 101°
2026-04-30 07:09 37.21211 -74.46368 12810 ft 410 kts 101°
2026-04-30 07:10 37.20736 -74.42842 12810 ft 410 kts 101°
2026-04-30 07:10 37.20261 -74.39321 12810 ft 410 kts 101°
2026-04-30 07:10 37.19785 -74.35794 12810 ft 410 kts 101°
2026-04-30 07:10 37.19310 -74.32267 12810 ft 410 kts 101°
2026-04-30 07:11 37.18835 -74.28748 12810 ft 410 kts 101°
2026-04-30 07:11 37.18367 -74.25276 12810 ft 410 kts 101°
2026-04-30 07:11 37.17892 -74.21753 12810 ft 409 kts 101°
2026-04-30 07:11 37.17417 -74.18236 12810 ft 409 kts 101°
2026-04-30 07:12 37.16943 -74.14718 12810 ft 409 kts 101°
2026-04-30 07:12 37.16468 -74.11202 12810 ft 409 kts 101°
2026-04-30 07:12 37.15994 -74.07687 12810 ft 409 kts 101°
2026-04-30 07:12 37.15767 -74.06004 12810 ft 409 kts 101°
2026-04-30 07:13 37.15524 -74.04206 12810 ft 409 kts 101°
2026-04-30 07:13 37.15099 -74.01057 12810 ft 409 kts 101°
2026-04-30 07:14 37.14624 -73.97535 12810 ft 408 kts 101°
2026-04-30 07:14 37.14152 -73.94036 12810 ft 408 kts 101°
2026-04-30 07:14 37.13678 -73.90525 12811 ft 408 kts 101°
2026-04-30 07:14 37.13205 -73.87020 12799 ft 408 kts 101°
2026-04-30 07:15 37.12727 -73.83511 11853 ft 408 kts 101°
2026-04-30 07:15 37.12258 -73.80022 10766 ft 405 kts 101°
2026-04-30 07:15 37.11793 -73.76548 9669 ft 402 kts 101°
2026-04-30 07:15 37.11331 -73.73113 8575 ft 398 kts 100°
2026-04-30 07:16 37.10872 -73.69713 7488 ft 394 kts 101°
2026-04-30 07:16 37.10417 -73.66351 6410 ft 389 kts 101°
2026-04-30 07:16 37.09968 -73.63035 5344 ft 383 kts 101°
2026-04-30 07:16 37.09526 -73.59773 4286 ft 376 kts 101°
2026-04-30 07:17 37.09092 -73.56572 3237 ft 369 kts 101°
2026-04-30 07:17 37.08677 -73.53512 3027 ft 336 kts 101°
2026-04-30 07:17 37.07895 -73.47807 2975 ft 333 kts 101°
2026-04-30 07:18 37.07502 -73.44961 3003 ft 332 kts 101°
2026-04-30 07:18 37.07109 -73.42115 3025 ft 332 kts 101°
2026-04-30 07:18 37.06722 -73.39314 3006 ft 324 kts 101°
2026-04-30 07:18 37.06385 -73.36859 3006 ft 259 kts 102°
2026-04-30 07:19 37.06073 -73.34629 3019 ft 261 kts 102°
2026-04-30 07:19 37.05758 -73.32395 3008 ft 260 kts 102°
2026-04-30 07:19 37.05442 -73.30169 3009 ft 262 kts 102°
2026-04-30 07:19 37.05124 -73.27933 3009 ft 260 kts 102°
2026-04-30 07:20 37.04806 -73.25701 3008 ft 262 kts 102°
2026-04-30 07:20 37.04488 -73.23470 3008 ft 258 kts 102°
2026-04-30 07:20 37.04169 -73.21236 3009 ft 261 kts 102°
2026-04-30 07:20 37.03850 -73.19007 3008 ft 260 kts 102°
2026-04-30 07:21 37.03531 -73.16774 3005 ft 261 kts 102°
2026-04-30 07:21 37.03216 -73.14571 2861 ft 259 kts 102°
2026-04-30 07:21 37.02826 -73.12377 2391 ft 256 kts 105°
2026-04-30 07:21 37.02394 -73.10234 1875 ft 252 kts 105°
2026-04-30 07:22 37.01422 -73.05879 1152 ft 257 kts 107°
2026-04-30 07:22 37.00904 -73.03733 1004 ft 261 kts 108°
2026-04-30 07:22 37.00429 -73.01568 918 ft 259 kts 88°
2026-04-30 07:23 37.01335 -72.99791 991 ft 254 kts 20°
2026-04-30 07:23 37.02765 -73.00506 1016 ft 242 kts 294°
2026-04-30 07:23 37.03231 -73.02689 1159 ft 247 kts 285°
2026-04-30 07:23 37.03642 -73.04488 1269 ft 179 kts 275°
2026-04-30 07:24 37.03286 -73.05749 982 ft 153 kts 217°
2026-04-30 07:24 37.02328 -73.05902 763 ft 141 kts 147°
2026-04-30 07:24 37.01533 -73.05209 796 ft 143 kts 142°
2026-04-30 07:24 37.01109 -73.04125 554 ft 143 kts 98°
2026-04-30 07:25 37.01046 -73.02895 452 ft 142 kts 97°
2026-04-30 07:25 37.00801 -73.01702 236 ft 143 kts 105°
2026-04-30 07:25 37.00565 -73.00533 73 ft 85 kts 102°
2026-04-30 07:25 37.00480 -73.00235 73 ft 35 kts 103°
2026-04-30 07:26 37.00424 -73.00042 73 ft 37 kts 88°
2026-04-30 07:26 37.00333 -72.99719 73 ft 36 kts 192°
2026-04-30 07:26 37.00242 -72.99459 73 ft 34 kts 266°
2026-04-30 07:26 37.00131 -72.99080 73 ft 35 kts 266°
2026-04-30 07:27 37.00075 -72.98887 73 ft 35 kts 266°
2026-04-30 07:27 36.99965 -72.98509 73 ft 35 kts 266°
2026-04-30 07:27 36.99882 -72.98222 73 ft 35 kts 266°
2026-04-30 07:27 36.99798 -72.97936 73 ft 35 kts 266°
2026-04-30 07:28 36.99742 -72.97743 73 ft 35 kts 266°
2026-04-30 07:28 36.99659 -72.97457 73 ft 35 kts 266°
2026-04-30 07:28 36.99576 -72.97171 73 ft 35 kts 266°
2026-04-30 07:28 36.99502 -72.96911 73 ft 25 kts 291°
2026-04-30 07:29 36.99430 -72.96679 73 ft 30 kts 280°
2026-04-30 07:29 36.99366 -72.96442 73 ft 37 kts 38°
2026-04-30 07:29 36.99286 -72.96147 73 ft 39 kts 88°
2026-04-30 07:29 36.99195 -72.95817 73 ft 40 kts 103°
2026-04-30 07:30 36.99028 -72.95242 73 ft 35 kts 105°
2026-04-30 07:30 36.98944 -72.94956 73 ft 35 kts 105°
2026-04-30 07:30 36.98861 -72.94670 73 ft 35 kts 105°
2026-04-30 07:31 36.98778 -72.94384 73 ft 35 kts 105°
2026-04-30 07:31 36.98694 -72.94097 73 ft 35 kts 105°
2026-04-30 07:31 36.98611 -72.93812 73 ft 35 kts 105°
2026-04-30 07:31 36.98351 -72.92700 574 ft 232 kts 107°
2026-04-30 07:32 36.98156 -72.90698 1506 ft 257 kts 70°
2026-04-30 07:32 36.99684 -72.89604 1655 ft 283 kts 324°
2026-04-30 07:32 37.00486 -72.91476 1526 ft 230 kts 290°
2026-04-30 07:32 37.00816 -72.93108 1453 ft 164 kts 259°
2026-04-30 07:33 37.00264 -72.94213 1271 ft 147 kts 212°
2026-04-30 07:33 36.99300 -72.94466 1266 ft 147 kts 162°
2026-04-30 07:33 36.98416 -72.93881 735 ft 140 kts 129°
2026-04-30 07:33 36.98079 -72.92733 397 ft 141 kts 103°
2026-04-30 07:34 36.97868 -72.91547 178 ft 140 kts 105°
2026-04-30 07:34 36.97686 -72.90633 73 ft 35 kts 98°
2026-04-30 07:34 36.97603 -72.90348 73 ft 35 kts 98°
2026-04-30 07:34 36.97518 -72.90009 73 ft 40 kts 139°
2026-04-30 07:35 36.97434 -72.89789 73 ft 22 kts 288°
2026-04-30 07:35 36.97353 -72.89564 73 ft 32 kts 270°
2026-04-30 07:35 36.97289 -72.89293 73 ft 38 kts 96°
2026-04-30 07:35 36.97199 -72.88969 73 ft 39 kts 105°
2026-04-30 07:36 36.97115 -72.88679 73 ft 35 kts 105°
2026-04-30 07:36 36.97029 -72.88381 73 ft 35 kts 105°
2026-04-30 07:36 36.96813 -72.87480 321 ft 249 kts 107°
2026-04-30 07:36 36.96293 -72.85245 1134 ft 271 kts 99°
2026-04-30 07:37 36.96928 -72.83132 1273 ft 286 kts 32°
2026-04-30 07:37 36.98764 -72.83443 1477 ft 293 kts 310°
2026-04-30 07:37 36.99553 -72.85745 1627 ft 276 kts 289°
2026-04-30 07:37 37.00162 -72.87871 1793 ft 248 kts 289°
2026-04-30 07:38 37.00212 -72.89684 1811 ft 172 kts 239°
2026-04-30 07:38 36.99367 -72.90311 1689 ft 146 kts 177°
2026-04-30 07:38 36.98379 -72.90109 1413 ft 144 kts 166°
2026-04-30 07:38 36.97417 -72.89780 1092 ft 143 kts 159°
2026-04-30 07:39 36.96689 -72.88978 867 ft 144 kts 114°
2026-04-30 07:39 36.96458 -72.87801 612 ft 140 kts 102°
2026-04-30 07:39 36.96262 -72.86613 410 ft 139 kts 103°
2026-04-30 07:39 36.96035 -72.85437 234 ft 139 kts 105°
2026-04-30 07:40 36.95802 -72.84272 80 ft 138 kts 104°
2026-04-30 07:40 36.95435 -72.82499 592 ft 248 kts 106°
2026-04-30 07:40 36.95151 -72.80336 1295 ft 254 kts 70°
2026-04-30 07:40 36.96488 -72.79234 1375 ft 251 kts 347°
2026-04-30 07:41 36.97457 -72.80763 1293 ft 241 kts 278°
2026-04-30 07:41 36.97662 -72.82680 1450 ft 184 kts 281°
2026-04-30 07:41 36.97800 -72.84039 1261 ft 150 kts 257°
2026-04-30 07:41 36.97265 -72.85127 1197 ft 145 kts 209°
2026-04-30 07:42 36.96304 -72.85308 1161 ft 145 kts 161°
2026-04-30 07:42 36.95503 -72.84608 733 ft 142 kts 118°
2026-04-30 07:42 36.95281 -72.83414 410 ft 138 kts 102°
2026-04-30 07:42 36.95071 -72.82246 298 ft 138 kts 104°
2026-04-30 07:43 36.94844 -72.81079 125 ft 138 kts 104°
2026-04-30 07:43 36.94687 -72.80342 73 ft 37 kts 101°
2026-04-30 07:43 36.94589 -72.80006 73 ft 38 kts 174°
2026-04-30 07:43 36.94496 -72.79758 73 ft 35 kts 309°
2026-04-30 07:44 36.94413 -72.79472 73 ft 35 kts 309°
2026-04-30 07:44 36.94329 -72.79186 73 ft 35 kts 309°
2026-04-30 07:44 36.94246 -72.78900 73 ft 35 kts 309°
2026-04-30 07:44 36.94163 -72.78614 73 ft 35 kts 309°
2026-04-30 07:45 36.94080 -72.78328 73 ft 35 kts 309°
2026-04-30 07:45 36.93996 -72.78042 73 ft 35 kts 309°
2026-04-30 07:45 36.93913 -72.77757 73 ft 35 kts 309°
2026-04-30 07:45 36.93830 -72.77471 73 ft 35 kts 309°
2026-04-30 07:46 36.93746 -72.77185 73 ft 35 kts 309°
2026-04-30 07:46 36.93663 -72.76899 73 ft 35 kts 309°
2026-04-30 07:46 36.93580 -72.76613 73 ft 35 kts 309°
2026-04-30 07:46 36.93497 -72.76327 73 ft 35 kts 309°
2026-04-30 07:47 36.93413 -72.76042 73 ft 35 kts 309°
2026-04-30 07:47 36.93330 -72.75756 73 ft 35 kts 309°
2026-04-30 07:47 36.93247 -72.75470 73 ft 35 kts 309°
2026-04-30 07:47 36.93163 -72.75184 73 ft 35 kts 309°
2026-04-30 07:48 36.93080 -72.74898 73 ft 35 kts 309°
2026-04-30 07:48 36.92997 -72.74612 73 ft 35 kts 309°
2026-04-30 07:48 36.92913 -72.74327 73 ft 35 kts 309°
2026-04-30 07:48 36.92831 -72.74044 73 ft 35 kts 309°
2026-04-30 07:49 36.92747 -72.73755 73 ft 35 kts 309°
2026-04-30 07:49 36.92665 -72.73473 73 ft 35 kts 309°
2026-04-30 07:49 36.92580 -72.73183 73 ft 35 kts 309°
2026-04-30 07:49 36.92498 -72.72901 73 ft 35 kts 309°
2026-04-30 07:50 36.92415 -72.72616 73 ft 35 kts 309°
2026-04-30 07:50 36.92332 -72.72330 73 ft 35 kts 309°
2026-04-30 07:50 36.92248 -72.72044 73 ft 35 kts 309°
2026-04-30 07:50 36.92165 -72.71758 73 ft 35 kts 309°
2026-04-30 07:51 36.92082 -72.71472 73 ft 35 kts 309°
2026-04-30 07:51 36.91998 -72.71187 73 ft 35 kts 309°
2026-04-30 07:51 36.91915 -72.70901 73 ft 35 kts 309°
2026-04-30 07:51 36.91832 -72.70616 73 ft 35 kts 309°
2026-04-30 07:52 36.91748 -72.70329 73 ft 35 kts 309°
2026-04-30 07:52 36.91665 -72.70044 73 ft 35 kts 309°
2026-04-30 07:52 36.91582 -72.69758 73 ft 35 kts 309°
2026-04-30 07:52 36.91499 -72.69472 73 ft 35 kts 309°
2026-04-30 07:53 36.91415 -72.69187 73 ft 35 kts 309°
2026-04-30 07:53 36.91332 -72.68901 73 ft 35 kts 309°
2026-04-30 07:53 36.91249 -72.68615 73 ft 35 kts 309°
2026-04-30 07:53 36.91185 -72.68364 73 ft 25 kts 282°
2026-04-30 07:54 36.91109 -72.68145 73 ft 31 kts 308°
2026-04-30 07:54 36.91037 -72.67863 73 ft 35 kts
2026-04-30 07:54 36.90954 -72.67535 73 ft 48 kts 114°
2026-04-30 07:54 36.90839 -72.67102 73 ft 214 kts 105°
2026-04-30 07:55 36.90419 -72.65016 1089 ft 266 kts 87°
2026-04-30 07:55 36.91530 -72.63959 957 ft 229 kts 323°
2026-04-30 07:55 36.92068 -72.65706 920 ft 202 kts 280°
2026-04-30 07:55 36.92311 -72.67119 1120 ft 151 kts 272°
2026-04-30 07:56 36.91887 -72.68282 752 ft 145 kts 214°
2026-04-30 07:56 36.91012 -72.68506 802 ft 138 kts 145°
2026-04-30 07:56 36.90631 -72.67423 424 ft 139 kts 103°
2026-04-30 07:56 36.90416 -72.66253 299 ft 139 kts 104°
2026-04-30 07:57 36.90182 -72.65091 127 ft 137 kts 105°
2026-04-30 07:57 36.90037 -72.64417 73 ft 35 kts 114°
2026-04-30 07:57 36.89953 -72.64131 73 ft 35 kts 114°
2026-04-30 07:57 36.89870 -72.63845 73 ft 36 kts 113°
2026-04-30 07:58 36.89786 -72.63526 73 ft 40 kts 104°
2026-04-30 07:58 36.89659 -72.63039 83 ft 255 kts 105°
2026-04-30 07:58 36.89482 -72.60996 1560 ft 258 kts 78°
2026-04-30 07:58 36.90654 -72.59814 2104 ft 219 kts 324°
2026-04-30 07:59 36.91349 -72.61516 1827 ft 255 kts 288°
2026-04-30 07:59 36.91955 -72.63736 1558 ft 265 kts 288°
2026-04-30 07:59 36.92130 -72.65702 1479 ft 195 kts 237°
2026-04-30 08:00 36.90249 -72.65767 1075 ft 142 kts 150°
2026-04-30 08:00 36.89666 -72.64827 691 ft 141 kts 107°
2026-04-30 08:00 36.89439 -72.63660 520 ft 138 kts 103°
2026-04-30 08:00 36.89225 -72.62492 357 ft 137 kts 104°
2026-04-30 08:01 36.88990 -72.61340 246 ft 136 kts 104°
2026-04-30 08:01 36.88757 -72.60185 104 ft 137 kts 105°
2026-04-30 08:01 36.88693 -72.59855 0 ft 134 kts
2026-04-30 08:01 36.92784 -72.61689 7159 ft 338 kts 171°
2026-04-30 08:02 36.87367 -72.59265 2535 ft 549 kts 133°
2026-04-30 08:02 36.85227 -72.55193 2046 ft 571 kts 110°
2026-04-30 08:03 36.86810 -72.48355 1073 ft 317 kts 352°
2026-04-30 08:03 36.88740 -72.51357 1379 ft 194 kts 288°
2026-04-30 08:03 36.89226 -72.53078 1608 ft 231 kts 291°
2026-04-30 08:04 36.89902 -72.55086 1385 ft 273 kts 293°
2026-04-30 08:04 36.90673 -72.57421 1373 ft 298 kts 291°
2026-04-30 08:04 36.91339 -72.59676 1328 ft 249 kts 287°
2026-04-30 08:04 36.91098 -72.61519 1118 ft 188 kts 228°
2026-04-30 08:05 36.90102 -72.62033 623 ft 146 kts 168°
2026-04-30 08:05 36.89143 -72.61854 853 ft 137 kts 171°
2026-04-30 08:05 36.88227 -72.61477 1044 ft 149 kts 130°
2026-04-30 08:05 36.87944 -72.60263 686 ft 142 kts 103°
2026-04-30 08:06 36.87747 -72.59057 664 ft 143 kts 101°
2026-04-30 08:06 36.87581 -72.57840 591 ft 142 kts 99°
2026-04-30 08:06 36.87389 -72.56629 517 ft 140 kts 103°
2026-04-30 08:06 36.87172 -72.55431 483 ft 143 kts 103°
2026-04-30 08:07 36.86945 -72.54244 275 ft 142 kts 104°
2026-04-30 08:07 36.86714 -72.53042 74 ft 143 kts 104°
2026-04-30 08:07 36.86610 -72.52637 73 ft 35 kts 99°
2026-04-30 08:07 36.86526 -72.52317 73 ft 41 kts 143°
2026-04-30 08:08 36.86420 -72.52045 73 ft 35 kts 299°
2026-04-30 08:08 36.86336 -72.51760 73 ft 35 kts 299°
2026-04-30 08:08 36.86253 -72.51474 73 ft 35 kts 299°
2026-04-30 08:08 36.86170 -72.51188 73 ft 35 kts 299°
2026-04-30 08:09 36.86086 -72.50903 73 ft 35 kts 299°
2026-04-30 08:09 36.86003 -72.50618 73 ft 35 kts 299°
2026-04-30 08:09 36.85920 -72.50332 73 ft 35 kts 299°
2026-04-30 08:09 36.85837 -72.50046 73 ft 35 kts 299°
2026-04-30 08:10 36.85753 -72.49761 73 ft 35 kts 299°
2026-04-30 08:10 36.85670 -72.49476 73 ft 35 kts 299°
2026-04-30 08:10 36.85587 -72.49189 73 ft 35 kts 299°
2026-04-30 08:10 36.85504 -72.48904 73 ft 35 kts 299°
2026-04-30 08:11 36.85420 -72.48619 73 ft 35 kts 299°
2026-04-30 08:11 36.85337 -72.48333 73 ft 35 kts 299°
2026-04-30 08:11 36.85254 -72.48047 73 ft 35 kts 299°
2026-04-30 08:11 36.85170 -72.47762 73 ft 35 kts 299°
2026-04-30 08:12 36.85091 -72.47486 73 ft 30 kts 299°
2026-04-30 08:12 36.85028 -72.47251 73 ft 30 kts 279°
2026-04-30 08:12 36.84955 -72.47008 73 ft 35 kts 14°
2026-04-30 08:12 36.84878 -72.46712 73 ft 36 kts 80°
2026-04-30 08:13 36.84789 -72.46394 73 ft 35 kts 105°
2026-04-30 08:13 36.84705 -72.46106 73 ft 35 kts 105°
2026-04-30 08:13 36.84622 -72.45821 73 ft 35 kts 105°
2026-04-30 08:13 36.84538 -72.45530 73 ft 69 kts 105°
2026-04-30 08:14 36.84099 -72.43529 757 ft 261 kts 105°
2026-04-30 08:14 36.84619 -72.41857 996 ft 206 kts
2026-04-30 08:14 36.85769 -72.42504 889 ft 196 kts 288°
2026-04-30 08:14 36.85892 -72.43675 909 ft 210 kts 277°
2026-04-30 08:15 36.85849 -72.45794 1038 ft 155 kts 232°
2026-04-30 08:15 36.85011 -72.46271 934 ft 131 kts 181°
2026-04-30 08:15 36.84175 -72.45755 390 ft 144 kts 105°
2026-04-30 08:15 36.84038 -72.44545 280 ft 141 kts 102°
2026-04-30 08:16 36.83845 -72.43345 137 ft 142 kts 103°
2026-04-30 08:16 36.83699 -72.42647 73 ft 35 kts 96°
2026-04-30 08:16 36.83642 -72.42453 73 ft 35 kts 96°
2026-04-30 08:16 36.83553 -72.42118 73 ft 40 kts 147°
2026-04-30 08:17 36.83470 -72.41891 73 ft 20 kts 282°
2026-04-30 08:17 36.83396 -72.41697 73 ft 31 kts 334°
2026-04-30 08:17 36.83325 -72.41396 73 ft 41 kts 93°
2026-04-30 08:17 36.83235 -72.41067 73 ft 35 kts 106°
2026-04-30 08:18 36.83103 -72.40559 75 ft 256 kts 105°
2026-04-30 08:18 36.82708 -72.38388 1223 ft 278 kts 77°
2026-04-30 08:18 36.84167 -72.37411 1753 ft 258 kts 326°
2026-04-30 08:18 36.84805 -72.39229 1657 ft 225 kts 288°
2026-04-30 08:19 36.85258 -72.40798 1651 ft 161 kts 281°
2026-04-30 08:19 36.85057 -72.42056 1317 ft 155 kts 232°
2026-04-30 08:19 36.84175 -72.42678 1121 ft 144 kts 184°
2026-04-30 08:19 36.83255 -72.42263 1004 ft 147 kts 132°
2026-04-30 08:20 36.82900 -72.41093 563 ft 140 kts 103°
2026-04-30 08:20 36.82678 -72.39894 379 ft 141 kts 104°
2026-04-30 08:20 36.82438 -72.38703 203 ft 141 kts 105°
2026-04-30 08:20 36.82221 -72.37612 73 ft 35 kts 103°
2026-04-30 08:21 36.82137 -72.37326 73 ft 35 kts 103°
2026-04-30 08:21 36.82053 -72.37037 73 ft 40 kts 102°
2026-04-30 08:21 36.81961 -72.36686 73 ft 36 kts 195°
2026-04-30 08:21 36.81871 -72.36421 73 ft 35 kts 285°
2026-04-30 08:22 36.81788 -72.36135 73 ft 35 kts 285°
2026-04-30 08:22 36.81705 -72.35850 73 ft 35 kts 285°
2026-04-30 08:22 36.81621 -72.35565 73 ft 34 kts 285°
2026-04-30 08:22 36.81560 -72.35342 73 ft 27 kts 277°
2026-04-30 08:23 36.81475 -72.35130 73 ft 31 kts 287°
2026-04-30 08:23 36.81407 -72.34847 73 ft 35 kts 50°
2026-04-30 08:23 36.81322 -72.34538 73 ft 40 kts 97°
2026-04-30 08:23 36.81236 -72.34218 73 ft 35 kts 105°
2026-04-30 08:24 36.81153 -72.33932 73 ft 35 kts 105°
2026-04-30 08:24 36.80832 -72.32517 291 ft 284 kts 105°
2026-04-30 08:24 36.80316 -72.29993 735 ft 285 kts 93°
2026-04-30 08:24 36.81279 -72.28217 625 ft 257 kts 358°
2026-04-30 08:25 36.82446 -72.29545 604 ft 249 kts 286°
2026-04-30 08:25 36.82894 -72.31481 1045 ft 202 kts 281°
2026-04-30 08:25 36.83014 -72.32440 1164 ft 156 kts 278°
2026-04-30 08:26 36.83081 -72.33267 1042 ft 153 kts 258°
2026-04-30 08:26 36.82441 -72.34222 940 ft 148 kts 209°
2026-04-30 08:26 36.81467 -72.34492 829 ft 143 kts 169°
2026-04-30 08:26 36.80727 -72.33770 586 ft 147 kts 104°
2026-04-30 08:27 36.80544 -72.32548 337 ft 140 kts 103°
2026-04-30 08:27 36.80313 -72.31365 192 ft 140 kts 105°
2026-04-30 08:27 36.80119 -72.30395 73 ft 35 kts 101°
2026-04-30 08:27 36.80035 -72.30110 73 ft 35 kts 101°
2026-04-30 08:28 36.79952 -72.29824 73 ft 35 kts 101°
2026-04-30 08:28 36.79869 -72.29539 73 ft 35 kts 101°
2026-04-30 08:28 36.79786 -72.29254 73 ft 35 kts 101°
2026-04-30 08:28 36.79701 -72.28919 73 ft 39 kts 84°
2026-04-30 08:29 36.79598 -72.28630 73 ft 27 kts 300°
2026-04-30 08:29 36.79539 -72.28452 73 ft 27 kts 270°
2026-04-30 08:29 36.79463 -72.28221 73 ft 32 kts 356°
2026-04-30 08:29 36.79388 -72.27902 73 ft 40 kts 98°
2026-04-30 08:30 36.79297 -72.27574 73 ft 66 kts 105°
2026-04-30 08:30 36.78857 -72.25536 635 ft 281 kts 104°
2026-04-30 08:30 36.78831 -72.23111 790 ft 285 kts 41°
2026-04-30 08:30 36.80104 -72.23528 406 ft 180 kts 295°
2026-04-30 08:31 36.80493 -72.25135 1039 ft 187 kts 285°
2026-04-30 08:31 36.80791 -72.26441 1245 ft 150 kts 286°
2026-04-30 08:31 36.81034 -72.27726 1136 ft 154 kts 263°
2026-04-30 08:31 36.80425 -72.28693 720 ft 148 kts 192°
2026-04-30 08:32 36.79445 -72.28582 647 ft 141 kts 160°
2026-04-30 08:32 36.78841 -72.27706 460 ft 144 kts 102°
2026-04-30 08:32 36.78701 -72.26490 378 ft 139 kts 99°
2026-04-30 08:32 36.78515 -72.25317 224 ft 141 kts 103°
2026-04-30 08:33 36.78289 -72.24148 74 ft 102 kts 104°
2026-04-30 08:33 36.78197 -72.23818 73 ft 39 kts 91°
2026-04-30 08:33 36.78095 -72.23493 73 ft 31 kts 244°
2026-04-30 08:33 36.78029 -72.23272 73 ft 26 kts 298°
2026-04-30 08:34 36.77955 -72.23079 73 ft 33 kts 261°
2026-04-30 08:34 36.77890 -72.22794 73 ft 40 kts 92°
2026-04-30 08:34 36.77799 -72.22447 73 ft 37 kts 105°
2026-04-30 08:34 36.77710 -72.22134 73 ft 118 kts 105°
2026-04-30 08:35 36.77281 -72.20068 1005 ft 274 kts 88°
2026-04-30 08:35 36.78639 -72.19085 1193 ft 277 kts 315°
2026-04-30 08:35 36.79229 -72.21159 1407 ft 243 kts 284°
2026-04-30 08:35 36.79641 -72.23048 1223 ft 206 kts 276°
2026-04-30 08:36 36.79221 -72.24332 977 ft 138 kts 209°
2026-04-30 08:36 36.78487 -72.24681 215 ft 124 kts 199°
2026-04-30 08:36 36.77602 -72.24904 348 ft 136 kts 157°
2026-04-30 08:36 36.77232 -72.23908 342 ft 138 kts 84°
2026-04-30 08:37 36.77418 -72.22758 603 ft 138 kts 86°
2026-04-30 08:37 36.77259 -72.21559 498 ft 140 kts 104°
2026-04-30 08:37 36.77023 -72.20390 316 ft 139 kts 105°
2026-04-30 08:37 36.76791 -72.19220 137 ft 139 kts 104°
2026-04-30 08:38 36.76622 -72.18417 73 ft 35 kts 101°
2026-04-30 08:38 36.76536 -72.18119 73 ft 35 kts 101°
2026-04-30 08:38 36.76453 -72.17831 73 ft 39 kts 102°
2026-04-30 08:38 36.76340 -72.17500 73 ft 36 kts 106°
2026-04-30 08:39 36.76256 -72.17210 73 ft 35 kts 107°
2026-04-30 08:39 36.76174 -72.16928 73 ft 35 kts 108°
2026-04-30 08:39 36.75775 -72.15439 955 ft 239 kts 109°
2026-04-30 08:39 36.75002 -72.13245 1496 ft 294 kts 124°
2026-04-30 08:40 36.73500 -72.11571 2067 ft 294 kts 152°
2026-04-30 08:40 36.71527 -72.10964 2657 ft 297 kts 180°
2026-04-30 08:40 36.69265 -72.11641 3353 ft 393 kts 204°
2026-04-30 08:40 36.67047 -72.13547 4141 ft 390 kts 225°
2026-04-30 08:41 36.65528 -72.16339 4954 ft 393 kts 246°
2026-04-30 08:41 36.64910 -72.19659 5774 ft 396 kts 267°
2026-04-30 08:41 36.65040 -72.23098 6640 ft 399 kts 274°
2026-04-30 08:41 36.65248 -72.26556 7518 ft 402 kts 274°
2026-04-30 08:42 36.65458 -72.30048 8378 ft 407 kts 274°
2026-04-30 08:42 36.65668 -72.33590 9256 ft 410 kts 274°
2026-04-30 08:42 36.65879 -72.37157 10142 ft 416 kts 274°
2026-04-30 08:42 36.66091 -72.40764 11040 ft 418 kts 274°
2026-04-30 08:43 36.66305 -72.44397 11948 ft 424 kts 273°
2026-04-30 08:43 36.66520 -72.48063 12874 ft 426 kts 273°
2026-04-30 08:43 36.66736 -72.51765 13805 ft 431 kts 274°
2026-04-30 08:43 36.66951 -72.55479 14748 ft 433 kts 274°
2026-04-30 08:44 36.67168 -72.59240 15706 ft 438 kts 274°
2026-04-30 08:44 36.67384 -72.63024 16675 ft 438 kts 274°
2026-04-30 08:44 36.67599 -72.66834 17656 ft 445 kts 274°
2026-04-30 08:44 36.67816 -72.70706 18657 ft 449 kts 274°
2026-04-30 08:45 36.68029 -72.74547 19655 ft 453 kts 274°
2026-04-30 08:45 36.68246 -72.78485 20683 ft 458 kts 274°
2026-04-30 08:45 36.68464 -72.82457 21726 ft 462 kts 274°
2026-04-30 08:45 36.68683 -72.86477 22785 ft 464 kts 274°
2026-04-30 08:46 36.68900 -72.90478 23434 ft 471 kts 274°
2026-04-30 08:46 36.69119 -72.94554 22427 ft 466 kts 274°
2026-04-30 08:46 36.69338 -72.98639 21483 ft 498 kts 274°
2026-04-30 08:46 36.69568 -73.02962 20488 ft 496 kts 274°
2026-04-30 08:47 36.69794 -73.07234 19514 ft 492 kts 274°
2026-04-30 08:47 36.70035 -73.11467 18550 ft 487 kts 275°
2026-04-30 08:47 36.70358 -73.15640 17604 ft 482 kts 276°
2026-04-30 08:47 36.70691 -73.19785 16927 ft 476 kts 276°
2026-04-30 08:48 36.71022 -73.23921 17028 ft 480 kts 276°
2026-04-30 08:48 36.71352 -73.28052 16967 ft 479 kts 275°
2026-04-30 08:48 36.71680 -73.32184 16997 ft 480 kts 275°
2026-04-30 08:48 36.72007 -73.36313 16989 ft 477 kts 275°
2026-04-30 08:49 36.72331 -73.40438 16989 ft 479 kts 275°
2026-04-30 08:49 36.72656 -73.44571 16991 ft 479 kts 275°
2026-04-30 08:49 36.72978 -73.48702 16990 ft 479 kts 275°
2026-04-30 08:49 36.73299 -73.52831 16990 ft 479 kts 275°
2026-04-30 08:50 36.73619 -73.56968 16990 ft 479 kts 275°
2026-04-30 08:50 36.73936 -73.61092 16990 ft 479 kts 275°
2026-04-30 08:50 36.74252 -73.65217 16990 ft 476 kts 275°
2026-04-30 08:50 36.74565 -73.69323 16990 ft 478 kts 275°
2026-04-30 08:51 36.74880 -73.73466 16990 ft 478 kts 275°
2026-04-30 08:51 36.75191 -73.77589 16990 ft 478 kts 275°
2026-04-30 08:51 36.75502 -73.81715 16990 ft 478 kts 275°
2026-04-30 08:51 36.75810 -73.85840 16989 ft 478 kts 275°
2026-04-30 08:52 36.76117 -73.89962 16990 ft 476 kts 275°
2026-04-30 08:52 36.76421 -73.94065 16990 ft 476 kts 275°
2026-04-30 08:52 36.76725 -73.98189 16990 ft 477 kts 275°
2026-04-30 08:52 36.77026 -74.02290 16990 ft 474 kts 275°
2026-04-30 08:53 36.77326 -74.06390 16993 ft 474 kts 275°
2026-04-30 08:53 36.77625 -74.10493 16992 ft 475 kts 275°
2026-04-30 08:53 36.77922 -74.14588 16989 ft 475 kts 275°
2026-04-30 08:53 36.78217 -74.18693 16995 ft 475 kts 275°
2026-04-30 08:54 36.78511 -74.22800 16989 ft 475 kts 275°
2026-04-30 08:54 36.78804 -74.26901 16990 ft 476 kts 275°
2026-04-30 08:54 36.79096 -74.31017 16990 ft 476 kts 275°
2026-04-30 08:54 36.79386 -74.35131 16990 ft 476 kts 275°
2026-04-30 08:55 36.79675 -74.39241 16989 ft 476 kts 275°
2026-04-30 08:55 36.79962 -74.43351 16992 ft 476 kts 275°
2026-04-30 08:55 36.80248 -74.47463 16989 ft 476 kts 275°
2026-04-30 08:55 36.80532 -74.51568 16994 ft 476 kts 275°
2026-04-30 08:56 36.80816 -74.55680 16988 ft 476 kts 275°
2026-04-30 08:56 36.81097 -74.59789 16990 ft 476 kts 275°
2026-04-30 08:56 36.81377 -74.63906 16990 ft 476 kts 275°
2026-04-30 08:56 36.81656 -74.68017 16990 ft 476 kts 275°
2026-04-30 08:57 36.81933 -74.72134 16990 ft 476 kts 275°
2026-04-30 08:57 36.82208 -74.76240 16990 ft 476 kts 274°
2026-04-30 08:57 36.82483 -74.80359 16991 ft 475 kts 274°
2026-04-30 08:57 36.82755 -74.84466 16990 ft 475 kts 274°
2026-04-30 08:58 36.83026 -74.88579 16990 ft 475 kts 274°
2026-04-30 08:58 36.83295 -74.92693 16990 ft 475 kts 274°
2026-04-30 08:58 36.83563 -74.96805 16990 ft 475 kts 274°
2026-04-30 08:58 36.83830 -75.00918 16989 ft 475 kts 274°
2026-04-30 08:59 36.84095 -75.05028 16989 ft 475 kts 274°
2026-04-30 08:59 36.84358 -75.09142 16991 ft 475 kts 274°
2026-04-30 08:59 36.84619 -75.13245 16988 ft 475 kts 274°
2026-04-30 08:59 36.84880 -75.17366 16991 ft 475 kts 274°
2026-04-30 09:00 36.85051 -75.20087 16990 ft 475 kts 274°
2026-04-30 09:00 36.85309 -75.24203 16990 ft 475 kts 274°
2026-04-30 09:00 36.85648 -75.29650 16990 ft 475 kts 274°
2026-04-30 09:00 36.85902 -75.33761 16990 ft 475 kts 274°
2026-04-30 09:01 36.86154 -75.37874 16990 ft 475 kts 274°
2026-04-30 09:01 36.86405 -75.41989 16990 ft 475 kts 274°
2026-04-30 09:01 36.86655 -75.46099 16988 ft 475 kts 274°
2026-04-30 09:01 36.86903 -75.50220 16991 ft 475 kts 274°
2026-04-30 09:02 36.87312 -75.57060 16990 ft 475 kts 274°
2026-04-30 09:02 36.87558 -75.61231 16990 ft 475 kts 274°
2026-04-30 09:02 36.87800 -75.65343 16990 ft 475 kts 274°
2026-04-30 09:03 36.88040 -75.69458 16990 ft 475 kts 274°
2026-04-30 09:03 36.88276 -75.73518 16990 ft 475 kts 274°
2026-04-30 09:03 36.88512 -75.77624 16991 ft 475 kts 274°
2026-04-30 09:03 36.88748 -75.81746 16990 ft 475 kts 274°
2026-04-30 09:04 36.88981 -75.85869 16990 ft 475 kts 274°
2026-04-30 09:04 36.89120 -75.88638 16272 ft 469 kts 273°
2026-04-30 09:04 36.89184 -75.89934 15550 ft 458 kts 274°
2026-04-30 09:04 36.89425 -75.93423 13430 ft 359 kts 275°
2026-04-30 09:05 36.89634 -75.96280 11193 ft 309 kts 274°
2026-04-30 09:05 36.90133 -75.98731 8988 ft 283 kts 298°
2026-04-30 09:05 36.91479 -76.00458 6502 ft 274 kts 309°
2026-04-30 09:05 36.91872 -76.02520 4527 ft 239 kts 238°
2026-04-30 09:06 36.90631 -76.02916 3398 ft 193 kts 141°
2026-04-30 09:06 36.89705 -76.01643 2262 ft 213 kts 132°
2026-04-30 09:06 36.88727 -76.00190 1857 ft 214 kts 141°
2026-04-30 09:06 36.87559 -75.99175 1487 ft 197 kts 162°
2026-04-30 09:07 36.86378 -75.99005 1196 ft 154 kts 187°
2026-04-30 09:07 36.85419 -75.99329 746 ft 139 kts 212°
2026-04-30 09:07 36.84738 -76.00143 531 ft 136 kts 231°
2026-04-30 09:07 36.84076 -76.01001 337 ft 138 kts 227°
2026-04-30 09:08 36.83372 -76.01808 129 ft 140 kts 225°
2026-04-30 09:08 36.82789 -76.02472 30 ft 60 kts 224°
2026-04-30 09:08 36.82655 -76.02622 30 ft 16 kts 217°
2026-04-30 09:08 36.82553 -76.02737 30 ft 28 kts 223°
2026-04-30 09:09 36.82427 -76.02866 30 ft 14 kts 182°
2026-04-30 09:09 36.82351 -76.02803 30 ft 7 kts 188°
2026-04-30 09:09 36.82272 -76.02876 30 ft 15 kts 221°
2026-04-30 09:09 36.82207 -76.02939 30 ft 13 kts 198°
2026-04-30 09:10 36.82122 -76.03046 30 ft 23 kts 222°
2026-04-30 09:10 36.82033 -76.03144 30 ft 11 kts 220°
2026-04-30 09:10 36.81986 -76.03197 30 ft 9 kts 222°
2026-04-30 09:10 36.81934 -76.03217 30 ft 9 kts 146°
2026-04-30 09:11 36.81873 -76.03137 30 ft 12 kts 131°
2026-04-30 09:11 36.81841 -76.03130 30 ft 0 kts 224°